Location: Brunembert
(50.7122°N, 1.8935°E)
Time: 05:01:03
(UTC+00:00)

NOSS 3-1 (A) - Pass Details

Date: 22 April 2021
Orbit: 733 x 1479 km, 63.4° (Epoch: 01 May)

Event Time Altitude Azimuth Distance (km) Brightness Sun altitude
Rises 20:41:52 0° 313° (NW) 3,768 8.6 -14.6°
Reaches altitude 10° 20:44:23 10° 318° (NW) 2,917 7.4 -14.9°
Maximum altitude 20:51:17 54° 35° (NE) 1,461 4.4 -15.7°
Enters shadow 20:57:37 17° 107° (ESE) 2,842 5.4 -16.4°
